Content
SEND FEEDBACK

Daily
Averages
Monthly
Summary
United States of America

DES PLAINES, ILLINOIS


Home > North America > United States > Illinois
Elevation: 651 feet     Latitude: 42 00N     Longitude: 087 54W

WEATHER
 
SELECT A DAY
Number of Records: 195,132;   Date Range: 7/8/95 - 9/20/14
 
SHARE

PRINT THIS DATA

[ ← Previous Day ]
WEATHER ALMANAC - OCTOBER 5, 2013
[ Next Day → ]
[ °C ]   °F
Weather ElementAverageHighLow
Temperature70.1 °F80.6 °F (2:16 pm)61 °F (3:52 am)
Dewpoint65.4 °F69.8 °F (12:22 pm)59 °F (3:41 am)
Humidity85.4 %94 % (1:42 am)65 % (2:43 pm)
Barometer29.86 in29.95 in (1:42 am)29.77 in (11:25 pm)
Wind Speed5 mph21.9 mph (4:25 pm)
Wind Gust29.9 mph (4:25 pm)
Weather ElementAverage
Visibility5.4 mi
Wind DirectionESE (109 °)

Weather ElementTotal
Precipitation2.34 in
Cooling Degree Days5.8 (Base 65)
Growing Degree Days20.8 (Base 50)
Averaged from 51 records on October 5, 2013
WEATHER CONDITIONS BREAKOUT
WIND DIRECTION BREAKOUT
WEATHER BY HOUR - OCTOBER 5, 2013
[ °C ]   °F
Local TimeTemperatureDewpointHumidityBarometerVisibilityWind DirectionWind SpeedGust SpeedPrecipitationEventsConditions
1:42 AM64.4 °F62.6 °F94 %29.95 in2.5 miCalmClear
1:49 AM64.4 °F62.6 °F94 %29.95 in1.0 miCalmClear
1:52 AM64.0 °F61.0 °F90 %29.94 in0.8 miCalmMist
2:12 AM64.4 °F62.6 °F94 %29.95 in0.2 miCalmFogFog
2:52 AM63.0 °F61.0 °F93 %29.94 in1.8 miCalmScattered Clouds
2:59 AM62.6 °F60.8 °F94 %29.94 in2.5 miCalmPartly Cloudy
3:24 AM62.6 °F60.8 °F94 %29.94 in3.0 miCalmClear
3:41 AM62.6 °F59.0 °F88 %29.94 in1.8 miCalmClear
3:52 AM61.0 °F59.0 °F93 %29.93 in1.8 miCalmClear
4:05 AM62.6 °F59.0 °F88 %29.93 in3.0 miCalmClear
4:52 AM63.0 °F60.1 °F90 %29.93 in4.0 miCalmClear
5:52 AM63.0 °F60.1 °F90 %29.93 in5.0 miCalmPartly Cloudy
6:52 AM66.9 °F64.0 °F90 %29.92 in2.5 miSSE (160°)3.5 mphMostly Cloudy
7:37 AM69.8 °F66.2 °F88 %29.92 in2.5 miSouth (170°)3.5 mphScattered Clouds
7:47 AM69.8 °F66.2 °F88 %29.93 in2.5 miSouth (180°)5.8 mphMostly Cloudy
7:52 AM70.0 °F66.9 °F90 %29.92 in4.0 miSouth (190°)5.8 mphMostly Cloudy
8:52 AM72.0 °F68.0 °F87 %29.91 in4.0 miSouth (190°)5.8 mph0.00 inOvercast
9:52 AM73.9 °F69.1 °F85 %29.92 in6.0 miSSW (210°)4.6 mphHaze
10:52 AM75.9 °F69.1 °F79 %29.91 in7.0 miSSW (200°)9.2 mphOvercast
11:52 AM78.1 °F69.1 °F74 %29.90 in7.0 miSSW (210°)10.4 mphOvercast
12:22 PM78.8 °F69.8 °F74 %29.90 in7.0 miSouth (180°)6.9 mphOvercast
12:52 PM78.1 °F69.1 °F74 %29.88 in8.0 miSSW (200°)9.2 mphOvercast
1:52 PM79.0 °F69.1 °F72 %29.85 in8.0 miSouth (170°)9.2 mphOvercast
2:16 PM80.6 °F69.8 °F70 %29.84 in9.0 miSouth (190°)4.6 mphScattered Clouds
2:43 PM80.6 °F68.0 °F65 %29.82 in9.0 miSSE (160°)6.9 mphMostly Cloudy
2:52 PM80.1 °F68.0 °F67 %29.82 in9.0 miSouth (170°)6.9 mphMostly Cloudy
3:52 PM80.1 °F68.0 °F67 %29.78 in7.0 miEast (100°)3.5 mphPartly Cloudy
3:59 PM78.8 °F69.8 °F74 %29.78 in7.0 miEast (100°)8.1 mph0.00 inRain-ThunderstormLight Thunderstorms and Rain
4:22 PM75.2 °F69.8 °F83 %29.80 in2.5 miSE (140°)15.0 mph20.7 mph0.06 inThunderstorm
4:25 PM73.4 °F68.0 °F83 %29.82 in0.8 miSouth (170°)21.9 mph29.9 mph0.19 inRain-ThunderstormHeavy Thunderstorms and Rain
4:37 PM69.8 °F66.2 °F88 %29.86 in0.2 miSSE (160°)17.3 mph25.3 mph0.72 inFog-Rain-ThunderstormHeavy Thunderstorms and Rain
4:52 PM69.1 °F66.0 °F90 %29.84 in0.8 miSouth (170°)10.4 mph25.3 mph1.25 inRain-ThunderstormThunderstorms and Rain
4:54 PM68.0 °F66.2 °F94 %29.84 in1.2 miSSE (160°)10.4 mph20.7 mph0.00 inRain-ThunderstormLight Thunderstorms and Rain
4:57 PM69.8 °F66.2 °F88 %29.83 in3.0 miSE (140°)8.1 mph0.00 inRain-ThunderstormLight Thunderstorms and Rain
5:02 PM69.8 °F66.2 °F88 %29.82 in10.0 miSE (130°)4.6 mph0.00 inRain-ThunderstormLight Thunderstorms and Rain
5:31 PM69.8 °F66.2 °F88 %29.81 in9.0 miSouth (190°)5.8 mph0.00 inRain-ThunderstormLight Rain
5:47 PM69.8 °F64.4 °F83 %29.83 in2.5 miSouth (180°)8.1 mph0.06 inRainRain
5:52 PM69.1 °F64.9 °F87 %29.83 in2.5 miVariable6.9 mph0.06 inRainLight Rain
6:00 PM69.8 °F64.4 °F83 %29.84 in10.0 miNW (320°)8.1 mph0.00 inOvercast
6:06 PM69.8 °F64.4 °F83 %29.83 in10.0 miCalm0.00 inOvercast
6:22 PM69.8 °F64.4 °F83 %29.82 in10.0 miCalm0.00 inOvercast
6:52 PM69.1 °F66.0 °F90 %29.81 in10.0 miCalm0.00 inMostly Cloudy
7:52 PM69.1 °F66.0 °F90 %29.79 in9.0 miCalmClear
8:29 PM69.8 °F66.2 °F88 %29.82 in6.0 miCalmScattered Clouds
8:52 PM69.1 °F66.9 °F93 %29.81 in6.0 miCalmOvercast
9:52 PM70.0 °F66.9 °F90 %29.80 in9.0 miSouth (190°)8.1 mphOvercast
10:08 PM69.8 °F66.2 °F88 %29.80 in8.0 miSouth (170°)5.8 mphMostly Cloudy
10:30 PM69.8 °F66.2 °F88 %29.80 in7.0 miSouth (180°)6.9 mphMostly Cloudy
10:52 PM70.0 °F66.0 °F87 %29.78 in9.0 miSSW (210°)5.8 mphMostly Cloudy
11:25 PM68.0 °F64.4 °F88 %29.77 in10.0 miWest (270°)3.5 mphOvercast
11:52 PM68.0 °F63.0 °F84 %29.77 in10.0 miVariable3.5 mphMostly Cloudy
Hourly data recorded from KPWK, located miles away from Des Plaines, Illinois







STORIES FROM OUR PARTNERS